Year,Month,Day,Hour,Minute,Value (Times are PST for temperature in C)
2012,10,22,00,00,4.40
2012,10,22,00,01,4.40
2012,10,22,00,02,4.40
2012,10,22,00,03,4.40
2012,10,22,00,04,4.40
2012,10,22,00,05,4.40
2012,10,22,00,06,4.40
2012,10,22,00,07,4.40
2012,10,22,00,08,4.40
2012,10,22,00,09,4.40
2012,10,22,00,10,4.40
2012,10,22,00,11,4.50
2012,10,22,00,12,4.50
2012,10,22,00,13,4.50
2012,10,22,00,14,4.50
2012,10,22,00,15,4.50
2012,10,22,00,16,4.50
2012,10,22,00,17,4.50
2012,10,22,00,18,4.50
2012,10,22,00,19,4.50
2012,10,22,00,20,4.50
2012,10,22,00,21,4.50
2012,10,22,00,22,4.50
2012,10,22,00,23,4.50
2012,10,22,00,24,4.50
2012,10,22,00,25,4.40
2012,10,22,00,26,4.40
2012,10,22,00,27,4.40
2012,10,22,00,28,4.40
2012,10,22,00,29,4.40
2012,10,22,00,30,4.40
2012,10,22,00,31,4.40
2012,10,22,00,32,4.40
2012,10,22,00,33,4.40
2012,10,22,00,34,4.40
2012,10,22,00,35,4.30
2012,10,22,00,36,4.30
2012,10,22,00,37,4.30
2012,10,22,00,38,4.30
2012,10,22,00,39,4.30
2012,10,22,00,40,4.30
2012,10,22,00,41,4.30
2012,10,22,00,42,4.30
2012,10,22,00,43,4.30
2012,10,22,00,44,4.30
2012,10,22,00,45,4.30
2012,10,22,00,46,4.30
2012,10,22,00,47,4.30
2012,10,22,00,48,4.40
2012,10,22,00,49,4.40
2012,10,22,00,50,4.40
2012,10,22,00,51,4.40
2012,10,22,00,52,4.40
2012,10,22,00,53,4.40
2012,10,22,00,54,4.40
2012,10,22,00,55,4.40
2012,10,22,00,56,4.40
2012,10,22,00,57,4.40
2012,10,22,00,58,4.40
2012,10,22,00,59,4.40
2012,10,22,01,00,4.50
2012,10,22,01,01,4.40
2012,10,22,01,02,4.40
2012,10,22,01,03,4.40
2012,10,22,01,04,4.50
2012,10,22,01,05,4.40
2012,10,22,01,06,4.40
2012,10,22,01,07,4.40
2012,10,22,01,08,4.40
2012,10,22,01,09,4.40
2012,10,22,01,10,4.40
2012,10,22,01,11,4.40
2012,10,22,01,12,4.40
2012,10,22,01,13,4.40
2012,10,22,01,14,4.40
2012,10,22,01,15,4.40
2012,10,22,01,16,4.40
2012,10,22,01,17,4.40
2012,10,22,01,18,4.40
2012,10,22,01,19,4.40
2012,10,22,01,20,4.40
2012,10,22,01,21,4.40
2012,10,22,01,22,4.40
2012,10,22,01,23,4.40
2012,10,22,01,24,4.40
2012,10,22,01,25,4.40
2012,10,22,01,26,4.40
2012,10,22,01,27,4.40
2012,10,22,01,28,4.40
2012,10,22,01,29,4.40
2012,10,22,01,30,4.40
2012,10,22,01,31,4.40
2012,10,22,01,32,4.40
2012,10,22,01,33,4.40
2012,10,22,01,34,4.40
2012,10,22,01,35,4.30
2012,10,22,01,36,4.40
2012,10,22,01,37,4.40
2012,10,22,01,38,4.30
2012,10,22,01,39,4.30
2012,10,22,01,40,4.30
2012,10,22,01,41,4.40
2012,10,22,01,42,4.40
2012,10,22,01,43,4.40
2012,10,22,01,44,4.40
2012,10,22,01,45,4.40
2012,10,22,01,46,4.40
2012,10,22,01,47,4.40
2012,10,22,01,48,4.40
2012,10,22,01,49,4.40
2012,10,22,01,50,4.40
2012,10,22,01,51,4.40
2012,10,22,01,52,4.40
2012,10,22,01,53,4.40
2012,10,22,01,54,4.40
2012,10,22,01,55,4.40
2012,10,22,01,56,4.40
2012,10,22,01,57,4.40
2012,10,22,01,58,4.40
2012,10,22,01,59,4.40
2012,10,22,02,00,4.40
2012,10,22,02,01,4.40
2012,10,22,02,02,4.40
2012,10,22,02,03,4.40
2012,10,22,02,04,4.40
2012,10,22,02,05,4.40
2012,10,22,02,06,4.40
2012,10,22,02,07,4.40
2012,10,22,02,08,4.40
2012,10,22,02,09,4.40
2012,10,22,02,10,4.40
2012,10,22,02,11,4.40
2012,10,22,02,12,4.40
2012,10,22,02,13,4.40
2012,10,22,02,14,4.40
2012,10,22,02,15,4.40
2012,10,22,02,16,4.40
2012,10,22,02,17,4.40
2012,10,22,02,18,4.40
2012,10,22,02,19,4.40
2012,10,22,02,20,4.40
2012,10,22,02,21,4.40
2012,10,22,02,22,4.40
2012,10,22,02,23,4.40
2012,10,22,02,24,4.40
2012,10,22,02,25,4.40
2012,10,22,02,26,4.40
2012,10,22,02,27,4.40
2012,10,22,02,28,4.40
2012,10,22,02,29,4.40
2012,10,22,02,30,4.40
2012,10,22,02,31,4.40
2012,10,22,02,32,4.40
2012,10,22,02,33,4.40
2012,10,22,02,34,4.40
2012,10,22,02,35,4.40
2012,10,22,02,36,4.40
2012,10,22,02,37,4.40
2012,10,22,02,38,4.30
2012,10,22,02,39,4.30
2012,10,22,02,40,4.30
2012,10,22,02,41,4.30
2012,10,22,02,42,4.30
2012,10,22,02,43,4.30
2012,10,22,02,44,4.30
2012,10,22,02,45,4.30
2012,10,22,02,46,4.30
2012,10,22,02,47,4.30
2012,10,22,02,48,4.30
2012,10,22,02,49,4.30
2012,10,22,02,50,4.20
2012,10,22,02,51,4.20
2012,10,22,02,52,4.20
2012,10,22,02,53,4.20
2012,10,22,02,54,4.20
2012,10,22,02,55,4.20
2012,10,22,02,56,4.20
2012,10,22,02,57,4.20
2012,10,22,02,58,4.20
2012,10,22,02,59,4.20
2012,10,22,03,00,4.20
2012,10,22,03,01,4.20
2012,10,22,03,02,4.20
2012,10,22,03,03,4.20
2012,10,22,03,04,4.20
2012,10,22,03,05,4.20
2012,10,22,03,06,4.20
2012,10,22,03,07,4.20
2012,10,22,03,08,4.20
2012,10,22,03,09,4.20
2012,10,22,03,10,4.20
2012,10,22,03,11,4.20
2012,10,22,03,12,4.20
2012,10,22,03,13,4.20
2012,10,22,03,14,4.20
2012,10,22,03,15,4.20
2012,10,22,03,16,4.20
2012,10,22,03,17,4.20
2012,10,22,03,18,4.20
2012,10,22,03,19,4.20
2012,10,22,03,20,4.30
2012,10,22,03,21,4.30
2012,10,22,03,22,4.30
2012,10,22,03,23,4.30
2012,10,22,03,24,4.30
2012,10,22,03,25,4.40
2012,10,22,03,26,4.40
2012,10,22,03,27,4.40
2012,10,22,03,28,4.40
2012,10,22,03,29,4.40
2012,10,22,03,30,4.40
2012,10,22,03,31,4.40
2012,10,22,03,32,4.50
2012,10,22,03,33,4.50
2012,10,22,03,34,4.50
2012,10,22,03,35,4.60
2012,10,22,03,36,4.60
2012,10,22,03,37,4.60
2012,10,22,03,38,4.70
2012,10,22,03,39,4.70
2012,10,22,03,40,4.70
2012,10,22,03,41,4.70
2012,10,22,03,42,4.70
2012,10,22,03,43,4.70
2012,10,22,03,44,4.70
2012,10,22,03,45,4.70
2012,10,22,03,46,4.70
2012,10,22,03,47,4.70
2012,10,22,03,48,4.70
2012,10,22,03,49,4.70
2012,10,22,03,50,4.70
2012,10,22,03,51,4.70
2012,10,22,03,52,4.70
2012,10,22,03,53,4.70
2012,10,22,03,54,4.70
2012,10,22,03,55,4.70
2012,10,22,03,56,4.70
2012,10,22,03,57,4.70
2012,10,22,03,58,4.70
2012,10,22,03,59,4.70
2012,10,22,04,00,4.70
2012,10,22,04,01,4.70
2012,10,22,04,02,4.70
2012,10,22,04,03,4.70
2012,10,22,04,04,4.70
2012,10,22,04,05,4.60
2012,10,22,04,06,4.60
2012,10,22,04,07,4.60
2012,10,22,04,08,4.60
2012,10,22,04,09,4.50
2012,10,22,04,10,4.50
2012,10,22,04,11,4.50
2012,10,22,04,12,4.50
2012,10,22,04,13,4.40
2012,10,22,04,14,4.40
2012,10,22,04,15,4.40
2012,10,22,04,16,4.40
2012,10,22,04,17,4.30
2012,10,22,04,18,4.30
2012,10,22,04,19,4.30
2012,10,22,04,20,4.30
2012,10,22,04,21,4.30
2012,10,22,04,22,4.30
2012,10,22,04,23,4.20
2012,10,22,04,24,4.20
2012,10,22,04,25,4.20
2012,10,22,04,26,4.20
2012,10,22,04,27,4.20
2012,10,22,04,28,4.20
2012,10,22,04,29,4.10
2012,10,22,04,30,4.10
2012,10,22,04,31,4.10
2012,10,22,04,32,4.10
2012,10,22,04,33,4.10
2012,10,22,04,34,4.10
2012,10,22,04,35,4.00
2012,10,22,04,36,4.00
2012,10,22,04,37,4.00
2012,10,22,04,38,3.90
2012,10,22,04,39,3.90
2012,10,22,04,40,3.90
2012,10,22,04,41,3.90
2012,10,22,04,42,3.90
2012,10,22,04,43,3.80
2012,10,22,04,44,3.80
2012,10,22,04,45,3.80
2012,10,22,04,46,3.80
2012,10,22,04,47,3.80
2012,10,22,04,48,3.80
2012,10,22,04,49,3.80
2012,10,22,04,50,3.80
2012,10,22,04,51,3.80
2012,10,22,04,52,3.80
2012,10,22,04,53,3.70
2012,10,22,04,54,3.70
2012,10,22,04,55,3.70
2012,10,22,04,56,3.70
2012,10,22,04,57,3.70
2012,10,22,04,58,3.70
2012,10,22,04,59,3.70
2012,10,22,05,00,3.60
2012,10,22,05,01,3.60
2012,10,22,05,02,3.60
2012,10,22,05,03,3.60
2012,10,22,05,04,3.60
2012,10,22,05,05,3.60
2012,10,22,05,06,3.60
2012,10,22,05,07,3.50
2012,10,22,05,08,3.50
2012,10,22,05,09,3.50
2012,10,22,05,10,3.50
2012,10,22,05,11,3.50
2012,10,22,05,12,3.50
2012,10,22,05,13,3.50
2012,10,22,05,14,3.50
2012,10,22,05,15,3.50
2012,10,22,05,16,3.50
2012,10,22,05,17,3.50
2012,10,22,05,18,3.50
2012,10,22,05,19,3.50
2012,10,22,05,20,3.50
2012,10,22,05,21,3.50
2012,10,22,05,22,3.50
2012,10,22,05,23,3.50
2012,10,22,05,24,3.50
2012,10,22,05,25,3.50
2012,10,22,05,26,3.50
2012,10,22,05,27,3.50
2012,10,22,05,28,3.40
2012,10,22,05,29,3.40
2012,10,22,05,30,3.40
2012,10,22,05,31,3.40
2012,10,22,05,32,3.40
2012,10,22,05,33,3.50
2012,10,22,05,34,3.50
2012,10,22,05,35,3.50
2012,10,22,05,36,3.50
2012,10,22,05,37,3.50
2012,10,22,05,38,3.50
2012,10,22,05,39,3.50
2012,10,22,05,40,3.50
2012,10,22,05,41,3.60
2012,10,22,05,42,3.50
2012,10,22,05,43,3.50
2012,10,22,05,44,3.50
2012,10,22,05,45,3.50
2012,10,22,05,46,3.50
2012,10,22,05,47,3.50
2012,10,22,05,48,3.40
2012,10,22,05,49,3.40
2012,10,22,05,50,3.50
2012,10,22,05,51,3.50
2012,10,22,05,52,3.50
2012,10,22,05,53,3.50
2012,10,22,05,54,3.50
2012,10,22,05,55,3.50
2012,10,22,05,56,3.50
2012,10,22,05,57,3.50
2012,10,22,05,58,3.50
2012,10,22,05,59,3.50
2012,10,22,06,00,3.60
2012,10,22,06,01,3.60
2012,10,22,06,02,3.50
2012,10,22,06,03,3.50
2012,10,22,06,04,3.50
2012,10,22,06,05,3.50
2012,10,22,06,06,3.50
2012,10,22,06,07,3.50
2012,10,22,06,08,3.50
2012,10,22,06,09,3.50
2012,10,22,06,10,3.50
2012,10,22,06,11,3.50
2012,10,22,06,12,3.50
2012,10,22,06,13,3.50
2012,10,22,06,14,3.50
2012,10,22,06,15,3.50
2012,10,22,06,16,3.50
2012,10,22,06,17,3.60
2012,10,22,06,18,3.60
2012,10,22,06,19,3.60
2012,10,22,06,20,3.60
2012,10,22,06,21,3.60
2012,10,22,06,22,3.60
2012,10,22,06,23,3.70
2012,10,22,06,24,3.70
2012,10,22,06,25,3.70
2012,10,22,06,26,3.80
2012,10,22,06,27,3.80
2012,10,22,06,28,3.90
2012,10,22,06,29,3.90
2012,10,22,06,30,3.90
2012,10,22,06,31,4.00
2012,10,22,06,32,4.10
2012,10,22,06,33,4.10
2012,10,22,06,34,4.20
2012,10,22,06,35,4.20
2012,10,22,06,36,4.20
2012,10,22,06,37,4.30
2012,10,22,06,38,4.30
2012,10,22,06,39,4.40
2012,10,22,06,40,4.40
2012,10,22,06,41,4.50
2012,10,22,06,42,4.50
2012,10,22,06,43,4.50
2012,10,22,06,44,4.60
2012,10,22,06,45,4.60
2012,10,22,06,46,4.60
2012,10,22,06,47,4.70
2012,10,22,06,48,4.70
2012,10,22,06,49,4.80
2012,10,22,06,50,4.80
2012,10,22,06,51,4.80
2012,10,22,06,52,4.80
2012,10,22,06,53,4.80
2012,10,22,06,54,4.80
2012,10,22,06,55,4.80
2012,10,22,06,56,4.80
2012,10,22,06,57,4.80
2012,10,22,06,58,4.70
2012,10,22,06,59,4.70
2012,10,22,07,00,4.70
2012,10,22,07,01,4.70
2012,10,22,07,02,4.70
2012,10,22,07,03,4.70
2012,10,22,07,04,4.70
2012,10,22,07,05,4.70
2012,10,22,07,06,4.80
2012,10,22,07,07,4.80
2012,10,22,07,08,4.80
2012,10,22,07,09,4.80
2012,10,22,07,10,4.80
2012,10,22,07,11,4.80
2012,10,22,07,12,4.90
2012,10,22,07,13,4.90
2012,10,22,07,14,4.80
2012,10,22,07,15,4.80
2012,10,22,07,16,4.80
2012,10,22,07,17,4.80
2012,10,22,07,18,4.80
2012,10,22,07,19,4.80
2012,10,22,07,20,4.80
2012,10,22,07,21,4.80
2012,10,22,07,22,4.90
2012,10,22,07,23,4.90
2012,10,22,07,24,4.90
2012,10,22,07,25,4.90
2012,10,22,07,26,4.90
2012,10,22,07,27,4.90
2012,10,22,07,28,4.90
2012,10,22,07,29,4.90
2012,10,22,07,30,4.90
2012,10,22,07,31,4.90
2012,10,22,07,32,4.90
2012,10,22,07,33,4.90
2012,10,22,07,34,4.90
2012,10,22,07,35,4.90
2012,10,22,07,36,4.90
2012,10,22,07,37,4.90
2012,10,22,07,38,4.80
2012,10,22,07,39,4.80
2012,10,22,07,40,4.80
2012,10,22,07,41,4.80
2012,10,22,07,42,4.80
2012,10,22,07,43,4.80
2012,10,22,07,44,4.80
2012,10,22,07,45,4.90
2012,10,22,07,46,4.90
2012,10,22,07,47,4.90
2012,10,22,07,48,4.90
2012,10,22,07,49,4.90
2012,10,22,07,50,4.80
2012,10,22,07,51,4.80
2012,10,22,07,52,4.80
2012,10,22,07,53,4.80
2012,10,22,07,54,4.80
2012,10,22,07,55,4.80
2012,10,22,07,56,4.80
2012,10,22,07,57,4.90
2012,10,22,07,58,5.00
2012,10,22,07,59,5.10
2012,10,22,08,00,5.10
2012,10,22,08,01,5.20
2012,10,22,08,02,5.20
2012,10,22,08,03,5.20
2012,10,22,08,04,5.20
2012,10,22,08,05,5.20
2012,10,22,08,06,5.30
2012,10,22,08,07,5.30
2012,10,22,08,08,5.30
2012,10,22,08,09,5.30
2012,10,22,08,10,5.30
2012,10,22,08,11,5.30
2012,10,22,08,12,5.40
2012,10,22,08,13,5.40
2012,10,22,08,14,5.40
2012,10,22,08,15,5.40
2012,10,22,08,16,5.40
2012,10,22,08,17,5.40
2012,10,22,08,18,5.50
2012,10,22,08,19,5.50
2012,10,22,08,20,5.50
2012,10,22,08,21,5.50
2012,10,22,08,22,5.50
2012,10,22,08,23,5.40
2012,10,22,08,24,5.40
2012,10,22,08,25,5.30
2012,10,22,08,26,5.30
2012,10,22,08,27,5.30
2012,10,22,08,28,5.30
2012,10,22,08,29,5.30
2012,10,22,08,30,5.30
2012,10,22,08,31,5.40
2012,10,22,08,32,5.40
2012,10,22,08,33,5.40
2012,10,22,08,34,5.40
2012,10,22,08,35,5.40
2012,10,22,08,36,5.40
2012,10,22,08,37,5.40
2012,10,22,08,38,5.50
2012,10,22,08,39,5.50
2012,10,22,08,40,5.50
2012,10,22,08,41,5.60
2012,10,22,08,42,5.60
2012,10,22,08,43,5.60
2012,10,22,08,44,5.70
2012,10,22,08,45,5.70
2012,10,22,08,46,5.70
2012,10,22,08,47,5.80
2012,10,22,08,48,5.80
2012,10,22,08,49,5.80
2012,10,22,08,50,5.80
2012,10,22,08,51,5.80
2012,10,22,08,52,5.70
2012,10,22,08,53,5.70
2012,10,22,08,54,5.70
2012,10,22,08,55,5.70
2012,10,22,08,56,5.70
2012,10,22,08,57,5.60
2012,10,22,08,58,5.60
2012,10,22,08,59,5.60
2012,10,22,09,00,5.60
2012,10,22,09,01,5.50
2012,10,22,09,02,5.50
2012,10,22,09,03,5.50
2012,10,22,09,04,5.50
2012,10,22,09,05,5.50
2012,10,22,09,06,5.50
2012,10,22,09,07,5.50
2012,10,22,09,08,5.50
2012,10,22,09,09,5.50
2012,10,22,09,10,5.50
2012,10,22,09,11,5.50
2012,10,22,09,12,5.50
2012,10,22,09,13,5.50
2012,10,22,09,14,5.50
2012,10,22,09,15,5.50
2012,10,22,09,16,5.60
2012,10,22,09,17,5.60
2012,10,22,09,18,5.60
2012,10,22,09,19,5.60
2012,10,22,09,20,5.60
2012,10,22,09,21,5.60
2012,10,22,09,22,5.60
2012,10,22,09,23,5.60
2012,10,22,09,24,5.70
2012,10,22,09,25,5.70
2012,10,22,09,26,5.70
2012,10,22,09,27,5.70
2012,10,22,09,28,5.70
2012,10,22,09,29,5.70
2012,10,22,09,30,5.70
2012,10,22,09,31,5.70
2012,10,22,09,32,5.80
2012,10,22,09,33,5.80
2012,10,22,09,34,5.80
2012,10,22,09,35,5.80
2012,10,22,09,36,5.80
2012,10,22,09,37,5.80
2012,10,22,09,38,5.80
2012,10,22,09,39,5.80
2012,10,22,09,40,5.80
2012,10,22,09,41,5.80
2012,10,22,09,42,5.80
2012,10,22,09,43,5.80
2012,10,22,09,44,5.80
2012,10,22,09,45,5.80
2012,10,22,09,46,5.80
2012,10,22,09,47,5.80
2012,10,22,09,48,5.80
2012,10,22,09,49,5.80
2012,10,22,09,50,5.80
2012,10,22,09,51,5.80
2012,10,22,09,52,5.80
2012,10,22,09,53,5.90
2012,10,22,09,54,5.90
2012,10,22,09,55,5.90
2012,10,22,09,56,5.90
2012,10,22,09,57,5.90
2012,10,22,09,58,5.90
2012,10,22,09,59,5.90
2012,10,22,10,00,5.90
2012,10,22,10,01,5.90
2012,10,22,10,02,6.00
2012,10,22,10,03,6.00
2012,10,22,10,04,6.00
2012,10,22,10,05,6.10
2012,10,22,10,06,6.10
2012,10,22,10,07,6.10
2012,10,22,10,08,6.10
2012,10,22,10,09,6.10
2012,10,22,10,10,6.20
2012,10,22,10,11,6.20
2012,10,22,10,12,6.20
2012,10,22,10,13,6.20
2012,10,22,10,14,6.20
2012,10,22,10,15,6.20
2012,10,22,10,16,6.30
2012,10,22,10,17,6.30
2012,10,22,10,18,6.30
2012,10,22,10,19,6.40
2012,10,22,10,20,6.50
2012,10,22,10,21,6.60
2012,10,22,10,22,6.60
2012,10,22,10,23,6.70
2012,10,22,10,24,6.70
2012,10,22,10,25,6.80
2012,10,22,10,26,6.90
2012,10,22,10,27,7.00
2012,10,22,10,28,7.00
2012,10,22,10,29,7.00
2012,10,22,10,30,7.00
2012,10,22,10,31,7.10
2012,10,22,10,32,7.20
2012,10,22,10,33,7.30
2012,10,22,10,34,7.40
2012,10,22,10,35,7.50
2012,10,22,10,36,7.50
2012,10,22,10,37,7.50
2012,10,22,10,38,7.60
2012,10,22,10,39,7.60
2012,10,22,10,40,7.60
2012,10,22,10,41,7.60
2012,10,22,10,42,7.70
2012,10,22,10,43,7.70
2012,10,22,10,44,7.70
2012,10,22,10,45,7.70
2012,10,22,10,46,7.70
2012,10,22,10,47,7.70
2012,10,22,10,48,7.80
2012,10,22,10,49,7.80
2012,10,22,10,50,7.80
2012,10,22,10,51,7.80
2012,10,22,10,52,7.80
2012,10,22,10,53,7.80
2012,10,22,10,54,7.80
2012,10,22,10,55,7.80
2012,10,22,10,56,7.80
2012,10,22,10,57,7.80
2012,10,22,10,58,7.90
2012,10,22,10,59,7.90
2012,10,22,11,00,7.90
2012,10,22,11,01,8.00
2012,10,22,11,02,8.00
2012,10,22,11,03,8.00
2012,10,22,11,04,8.10
2012,10,22,11,05,8.10
2012,10,22,11,06,8.20
2012,10,22,11,07,8.20
2012,10,22,11,08,8.20
2012,10,22,11,09,8.30
2012,10,22,11,10,8.30
2012,10,22,11,11,8.30
2012,10,22,11,12,8.30
2012,10,22,11,13,8.30
2012,10,22,11,14,8.30
2012,10,22,11,15,8.30
2012,10,22,11,16,8.40
2012,10,22,11,17,8.40
2012,10,22,11,18,8.50
2012,10,22,11,19,8.50
2012,10,22,11,20,8.50
2012,10,22,11,21,8.50
2012,10,22,11,22,8.40
2012,10,22,11,23,8.50
2012,10,22,11,24,8.50
2012,10,22,11,25,8.50
2012,10,22,11,26,8.50
2012,10,22,11,27,8.60
2012,10,22,11,28,8.50
2012,10,22,11,29,8.50
2012,10,22,11,30,8.40
2012,10,22,11,31,8.50
2012,10,22,11,32,8.50
2012,10,22,11,33,8.50
2012,10,22,11,34,8.60
2012,10,22,11,35,8.60
2012,10,22,11,36,8.70
2012,10,22,11,37,8.70
2012,10,22,11,38,8.70
2012,10,22,11,39,8.70
2012,10,22,11,40,8.70
2012,10,22,11,41,8.70
2012,10,22,11,42,8.70
2012,10,22,11,43,8.70
2012,10,22,11,44,8.70
2012,10,22,11,45,8.70
2012,10,22,11,46,8.70
2012,10,22,11,47,8.60
2012,10,22,11,48,8.60
2012,10,22,11,49,8.60
2012,10,22,11,50,8.60
2012,10,22,11,51,8.50
2012,10,22,11,52,8.50
2012,10,22,11,53,8.50
2012,10,22,11,54,8.60
2012,10,22,11,55,8.70
2012,10,22,11,56,8.70
2012,10,22,11,57,8.70
2012,10,22,11,58,8.80
2012,10,22,11,59,8.80
2012,10,22,12,00,8.80
2012,10,22,12,01,8.90
2012,10,22,12,02,8.90
2012,10,22,12,03,8.90
2012,10,22,12,04,8.90
2012,10,22,12,05,8.90
2012,10,22,12,06,8.90
2012,10,22,12,07,8.90
2012,10,22,12,08,8.90
2012,10,22,12,09,8.90
2012,10,22,12,10,8.90
2012,10,22,12,11,8.90
2012,10,22,12,12,8.90
2012,10,22,12,13,8.90
2012,10,22,12,14,8.90
2012,10,22,12,15,8.90
2012,10,22,12,16,8.90
2012,10,22,12,17,8.90
2012,10,22,12,18,8.90
2012,10,22,12,19,8.90
2012,10,22,12,20,8.90
2012,10,22,12,21,9.00
2012,10,22,12,22,9.00
2012,10,22,12,23,9.00
2012,10,22,12,24,9.10
2012,10,22,12,25,9.10
2012,10,22,12,26,9.10
2012,10,22,12,27,9.10
2012,10,22,12,28,9.00
2012,10,22,12,29,9.00
2012,10,22,12,30,9.00
2012,10,22,12,31,9.00
2012,10,22,12,32,9.00
2012,10,22,12,33,9.00
2012,10,22,12,34,9.00
2012,10,22,12,35,9.00
2012,10,22,12,36,9.10
2012,10,22,12,37,9.20
2012,10,22,12,38,9.20
2012,10,22,12,39,9.20
2012,10,22,12,40,9.30
2012,10,22,12,41,9.30
2012,10,22,12,42,9.40
2012,10,22,12,43,9.40
2012,10,22,12,44,9.50
2012,10,22,12,45,9.50
2012,10,22,12,46,9.60
2012,10,22,12,47,9.60
2012,10,22,12,48,9.70
2012,10,22,12,49,9.80
2012,10,22,12,50,9.80
2012,10,22,12,51,9.90
2012,10,22,12,52,9.90
2012,10,22,12,53,10.00
2012,10,22,12,54,10.00
2012,10,22,12,55,10.00
2012,10,22,12,56,10.10
2012,10,22,12,57,10.20
2012,10,22,12,58,10.20
2012,10,22,12,59,10.20
2012,10,22,13,00,10.20
2012,10,22,13,01,10.30
2012,10,22,13,02,10.30
2012,10,22,13,03,10.30
2012,10,22,13,04,10.30
2012,10,22,13,05,10.30
2012,10,22,13,06,10.40
2012,10,22,13,07,10.40
2012,10,22,13,08,10.40
2012,10,22,13,09,10.40
2012,10,22,13,10,10.40
2012,10,22,13,11,10.40
2012,10,22,13,12,10.40
2012,10,22,13,13,10.40
2012,10,22,13,14,10.30
2012,10,22,13,15,10.30
2012,10,22,13,16,10.30
2012,10,22,13,17,10.20
2012,10,22,13,18,10.30
2012,10,22,13,19,10.30
2012,10,22,13,20,10.30
2012,10,22,13,21,10.30
2012,10,22,13,22,10.30
2012,10,22,13,23,10.40
2012,10,22,13,24,10.40
2012,10,22,13,25,10.30
2012,10,22,13,26,10.30
2012,10,22,13,27,10.30
2012,10,22,13,28,10.20
2012,10,22,13,29,10.20
2012,10,22,13,30,10.20
2012,10,22,13,31,10.20
2012,10,22,13,32,10.20
2012,10,22,13,33,10.20
2012,10,22,13,34,10.20
2012,10,22,13,35,10.30
2012,10,22,13,36,10.30
2012,10,22,13,37,10.30
2012,10,22,13,38,10.20
2012,10,22,13,39,10.20
2012,10,22,13,40,10.20
2012,10,22,13,41,10.20
2012,10,22,13,42,10.30
2012,10,22,13,43,10.30
2012,10,22,13,44,10.30
2012,10,22,13,45,10.30
2012,10,22,13,46,10.30
2012,10,22,13,47,10.30
2012,10,22,13,48,10.30
2012,10,22,13,49,10.30
2012,10,22,13,50,10.30
2012,10,22,13,51,10.30
2012,10,22,13,52,10.30
2012,10,22,13,53,10.30
2012,10,22,13,54,10.30
2012,10,22,13,55,10.30
2012,10,22,13,56,10.20
2012,10,22,13,57,10.20
2012,10,22,13,58,10.20
2012,10,22,13,59,10.20
2012,10,22,14,00,10.10
2012,10,22,14,01,10.10
2012,10,22,14,02,10.10
2012,10,22,14,03,10.10
2012,10,22,14,04,10.10
2012,10,22,14,05,10.10
2012,10,22,14,06,10.00
2012,10,22,14,07,10.00
2012,10,22,14,08,10.00
2012,10,22,14,09,10.00
2012,10,22,14,10,10.10
2012,10,22,14,11,10.10
2012,10,22,14,12,10.10
2012,10,22,14,13,10.10
2012,10,22,14,14,10.20
2012,10,22,14,15,10.20
2012,10,22,14,16,10.30
2012,10,22,14,17,10.40
2012,10,22,14,18,10.40
2012,10,22,14,19,10.40
2012,10,22,14,20,10.40
2012,10,22,14,21,10.50
2012,10,22,14,22,10.50
2012,10,22,14,23,10.40
2012,10,22,14,24,10.50
2012,10,22,14,25,10.50
2012,10,22,14,26,10.60
2012,10,22,14,27,10.60
2012,10,22,14,28,10.60
2012,10,22,14,29,10.70
2012,10,22,14,30,10.70
2012,10,22,14,31,10.80
2012,10,22,14,32,10.90
2012,10,22,14,33,11.00
2012,10,22,14,34,11.10
2012,10,22,14,35,11.20
2012,10,22,14,36,11.20
2012,10,22,14,37,11.20
2012,10,22,14,38,11.30
2012,10,22,14,39,11.30
2012,10,22,14,40,11.30
2012,10,22,14,41,11.40
2012,10,22,14,42,11.40
2012,10,22,14,43,11.40
2012,10,22,14,44,11.40
2012,10,22,14,45,11.40
2012,10,22,14,46,11.40
2012,10,22,14,47,11.50
2012,10,22,14,48,11.50
2012,10,22,14,49,11.50
2012,10,22,14,50,11.50
2012,10,22,14,51,11.60
2012,10,22,14,52,11.60
2012,10,22,14,53,11.60
2012,10,22,14,54,11.60
2012,10,22,14,55,11.50
2012,10,22,14,56,11.50
2012,10,22,14,57,11.50
2012,10,22,14,58,11.50
2012,10,22,14,59,11.50
2012,10,22,15,00,11.50
2012,10,22,15,01,11.50
2012,10,22,15,02,11.60
2012,10,22,15,03,11.60
2012,10,22,15,04,11.60
2012,10,22,15,05,11.60
2012,10,22,15,06,11.60
2012,10,22,15,07,11.60
2012,10,22,15,08,11.60
2012,10,22,15,09,11.60
2012,10,22,15,10,11.60
2012,10,22,15,11,11.50
2012,10,22,15,12,11.50
2012,10,22,15,13,11.40
2012,10,22,15,14,11.40
2012,10,22,15,15,11.40
2012,10,22,15,16,11.40
2012,10,22,15,17,11.40
2012,10,22,15,18,11.40
2012,10,22,15,19,11.40
2012,10,22,15,20,11.40
2012,10,22,15,21,11.40
2012,10,22,15,22,11.40
2012,10,22,15,23,11.40
2012,10,22,15,24,11.40
2012,10,22,15,25,11.40
2012,10,22,15,26,11.50
2012,10,22,15,27,11.50
2012,10,22,15,28,11.50
2012,10,22,15,29,11.60
2012,10,22,15,30,11.60
2012,10,22,15,31,11.60
2012,10,22,15,32,11.60
2012,10,22,15,33,11.60
2012,10,22,15,34,11.60
2012,10,22,15,35,11.60
2012,10,22,15,36,11.70
2012,10,22,15,37,11.70
2012,10,22,15,38,11.70
2012,10,22,15,39,11.70
2012,10,22,15,40,11.70
2012,10,22,15,41,11.70
2012,10,22,15,42,11.70
2012,10,22,15,43,11.70
2012,10,22,15,44,11.60
2012,10,22,15,45,11.60
2012,10,22,15,46,11.70
2012,10,22,15,47,11.70
2012,10,22,15,48,11.70
2012,10,22,15,49,11.70
2012,10,22,15,50,11.70
2012,10,22,15,51,11.70
2012,10,22,15,52,11.70
2012,10,22,15,53,11.70
2012,10,22,15,54,11.70
2012,10,22,15,55,11.80
2012,10,22,15,56,11.80
2012,10,22,15,57,11.80
2012,10,22,15,58,11.80
2012,10,22,15,59,11.80
2012,10,22,16,00,11.80
2012,10,22,16,01,11.70
2012,10,22,16,02,11.70
2012,10,22,16,03,11.60
2012,10,22,16,04,11.60
2012,10,22,16,05,11.50
2012,10,22,16,06,11.50
2012,10,22,16,07,11.40
2012,10,22,16,08,11.30
2012,10,22,16,09,11.30
2012,10,22,16,10,11.30
2012,10,22,16,11,11.30
2012,10,22,16,12,11.30
2012,10,22,16,13,11.30
2012,10,22,16,14,11.30
2012,10,22,16,15,11.30
2012,10,22,16,16,11.20
2012,10,22,16,17,11.20
2012,10,22,16,18,11.20
2012,10,22,16,19,11.20
2012,10,22,16,20,11.10
2012,10,22,16,21,11.10
2012,10,22,16,22,11.10
2012,10,22,16,23,11.00
2012,10,22,16,24,11.00
2012,10,22,16,25,10.90
2012,10,22,16,26,10.90
2012,10,22,16,27,10.80
2012,10,22,16,28,10.80
2012,10,22,16,29,10.70
2012,10,22,16,30,10.70
2012,10,22,16,31,10.60
2012,10,22,16,32,10.60
2012,10,22,16,33,10.50
2012,10,22,16,34,10.40
2012,10,22,16,35,10.40
2012,10,22,16,36,10.30
2012,10,22,16,37,10.20
2012,10,22,16,38,10.20
2012,10,22,16,39,10.10
2012,10,22,16,40,10.00
2012,10,22,16,41,9.90
2012,10,22,16,42,9.90
2012,10,22,16,43,9.90
2012,10,22,16,44,9.80
2012,10,22,16,45,9.80
2012,10,22,16,46,9.70
2012,10,22,16,47,9.70
2012,10,22,16,48,9.60
2012,10,22,16,49,9.60
2012,10,22,16,50,9.60
2012,10,22,16,51,9.60
2012,10,22,16,52,9.50
2012,10,22,16,53,9.50
2012,10,22,16,54,9.40
2012,10,22,16,55,9.40
2012,10,22,16,56,9.40
2012,10,22,16,57,9.40
2012,10,22,16,58,9.30
2012,10,22,16,59,9.30
2012,10,22,17,00,9.30
2012,10,22,17,01,9.20
2012,10,22,17,02,9.20
2012,10,22,17,03,9.20
2012,10,22,17,04,9.20
2012,10,22,17,05,9.20
2012,10,22,17,06,9.10
2012,10,22,17,07,9.10
2012,10,22,17,08,9.10
2012,10,22,17,09,9.10
2012,10,22,17,10,9.10
2012,10,22,17,11,9.10
2012,10,22,17,12,9.10
2012,10,22,17,13,9.00
2012,10,22,17,14,9.00
2012,10,22,17,15,9.00
2012,10,22,17,16,9.00
2012,10,22,17,17,9.00
2012,10,22,17,18,9.00
2012,10,22,17,19,9.00
2012,10,22,17,20,9.00
2012,10,22,17,21,9.00
2012,10,22,17,22,9.00
2012,10,22,17,23,9.00
2012,10,22,17,24,9.00
2012,10,22,17,25,9.00
2012,10,22,17,26,9.00
2012,10,22,17,27,9.00
2012,10,22,17,28,9.00
2012,10,22,17,29,9.00
2012,10,22,17,30,9.00
2012,10,22,17,31,9.00
2012,10,22,17,32,9.00
2012,10,22,17,33,9.00
2012,10,22,17,34,9.00
2012,10,22,17,35,9.00
2012,10,22,17,36,9.00
2012,10,22,17,37,9.00
2012,10,22,17,38,8.90
2012,10,22,17,39,8.90
2012,10,22,17,40,8.90
2012,10,22,17,41,8.90
2012,10,22,17,42,8.90
2012,10,22,17,43,8.80
2012,10,22,17,44,8.80
2012,10,22,17,45,8.80
2012,10,22,17,46,8.80
2012,10,22,17,47,8.80
2012,10,22,17,48,8.80
2012,10,22,17,49,8.70
2012,10,22,17,50,8.70
2012,10,22,17,51,8.70
2012,10,22,17,52,8.70
2012,10,22,17,53,8.70
2012,10,22,17,54,8.70
2012,10,22,17,55,8.70
2012,10,22,17,56,8.60